Location: Grange Verzio
(44.5000°N, 6.9833°E)
Time: 17:37:25
(UTC+00:00)

Cosmos 2219 Rocket - Pass Details

Date: 30 September 2023
Orbit: 826 x 848 km, 71.0° (Epoch: 08 December)

Event Time Altitude Azimuth Distance (km) Brightness Sun altitude
Rises 18:48:38 0° 234° (SW) 3,354 5.9 -17.4°
Reaches altitude 10° 18:51:19 10° 244° (WSW) 2,426 5.3 -17.8°
Maximum altitude 18:56:14 31° 307° (NW) 1,411 4.0 -18.7°
Drops below altitude 10° 19:01:12 10° 9° (N) 2,447 4.7 -19.5°
Sets 19:03:56 0° 20° (NNE) 3,388 5.3 -20.0°
